Home   Weather   Cobar   Past weeks
Flag for Australia

Past Weather in Cobar, New South Wales, Australia — Yesterday and Last 2 Weeks

Now
57 °F

Refreshingly cool.


Feels Like: 54 °F
Forecast: 74 / 46 °F
Wind: 12 mph from South

Location: Cobar

Current Time: Oct 20, 2019 at 10:24:42 am

Latest Report: Oct 20, 2019 at 9:00 am


Visibility: N/A

Pressure: 30.26 "Hg

Humidity: 41%

Dew Point: 33 °F

Location of CobarLocation

Past Weather in Cobar — Graph

°F

Cobar Temperature Yesterday

Maximum temperature yesterday: 83 °F (at 3:00 pm)
Minimum temperature yesterday: 53 °F (at 7:00 am)
Average temperature yesterday: 68 °F

High & Low Weather Summary for the Past Weeks

 TemperatureHumidityPressure
High101 °F (Oct 6, 4:00 pm)74% (Oct 12, 6:00 am)30.26 "Hg (Oct 12, 6:00 am)
Low44 °F (Oct 9, 7:00 am)6% (Oct 6, 4:00 pm)29.72 "Hg (Oct 16, 7:00 pm)
Average69 °F27%29.98 "Hg
* Reported Oct 5 8:00 am — Oct 20 9:00 am, Cobar. Weather by CustomWeather, © 2019

Note: Actual official high and low records may vary slightly from our data, if they occured in-between our weather recording intervals... More about our weather records

Advertising

Cobar Weather History for the Previous 24 Hours

Scroll right to see more
 ConditionsComfort  
Time TempWeatherWind HumidityBarometerVisibility
9:00 am
Sun, Oct 20
57 °FRefreshingly cool.12 mph41%30.26 "HgN/A
7:00 am48 °FCool.6 mph47%30.22 "HgN/A
6:00 am48 °FCool.5 mph48%30.18 "HgN/A
4:00 am54 °FCool.6 mph40%30.15 "HgN/A
3:00 am55 °FRefreshingly cool.6 mph37%30.16 "HgN/A
1:00 am59 °FRefreshingly cool.8 mph31%30.18 "HgN/A
12:00 am61 °FRefreshingly cool.9 mph29%30.17 "HgN/A
10:00 pm
Sat, Oct 19
65 °FMild.14 mph25%30.14 "HgN/A
9:00 pm68 °FMild.12 mph24%30.10 "HgN/A
7:00 pm73 °FMild.20 mph21%30.03 "HgN/A
6:00 pm78 °FPassing clouds.20 mph17%30.00 "HgN/A
4:00 pm81 °FPleasantly warm.21 mph12%29.97 "HgN/A
3:00 pm83 °FPleasantly warm.20 mph9%29.98 "HgN/A
1:00 pm80 °FPleasantly warm.18 mph10%30.02 "HgN/A
12:00 pm79 °FPleasantly warm.9 mph11%30.04 "HgN/A
10:00 am72 °FMild.6 mph10%30.07 "HgN/A
Weather by CustomWeather, © 2019

See weather overview